TimeMDT,TemperatureF,Dew PointF,Humidity,Sea Level PressureIn,VisibilityMPH,Wind Direction,Wind SpeedMPH,Gust SpeedMPH,PrecipitationIn,Events,Conditions,WindDirDegrees,DateUTC
12:00 AM,51.8,-9999,N/A,30.19,10.0,SSW,11.5,16.1,N/A,,Clear,210,2012-10-02 06:00:00
12:55 AM,50.0,-9999,N/A,30.17,10.0,SW,11.5,17.3,N/A,,Clear,220,2012-10-02 06:55:00
1:20 AM,51.8,-9999,N/A,30.17,10.0,SW,13.8,19.6,N/A,,Clear,220,2012-10-02 07:20:00
2:00 AM,51.8,-9999,N/A,30.16,10.0,SW,12.7,23.0,N/A,,Clear,220,2012-10-02 08:00:00
2:15 AM,51.8,-9999,N/A,30.16,10.0,SSW,10.4,-,N/A,,Clear,210,2012-10-02 08:15:00
2:40 AM,50.0,-9999,N/A,30.15,10.0,SSW,5.8,-,N/A,,Clear,200,2012-10-02 08:40:00
2:55 AM,50.0,-9999,N/A,30.15,10.0,SW,10.4,-,N/A,,Clear,230,2012-10-02 08:55:00
3:20 AM,50.0,-9999,N/A,30.15,10.0,SW,8.1,-,N/A,,Clear,220,2012-10-02 09:20:00
3:35 AM,48.2,-9999,N/A,30.14,10.0,SW,6.9,-,N/A,,Clear,220,2012-10-02 09:35:00
4:00 AM,48.2,-9999,N/A,30.14,10.0,Calm,Calm,-,N/A,,Clear,0,2012-10-02 10:00:00
4:20 AM,41.0,-9999,N/A,30.14,10.0,Calm,Calm,-,N/A,,Clear,0,2012-10-02 10:20:00
4:40 AM,41.0,-9999,N/A,30.14,10.0,Calm,Calm,-,N/A,,Clear,0,2012-10-02 10:40:00
5:00 AM,44.6,-9999,N/A,30.13,10.0,SW,6.9,-,N/A,,Clear,220,2012-10-02 11:00:00
5:20 AM,46.4,-9999,N/A,30.13,10.0,SW,5.8,-,N/A,,Clear,230,2012-10-02 11:20:00
5:40 AM,46.4,-9999,N/A,30.13,10.0,WSW,9.2,-,N/A,,Clear,240,2012-10-02 11:40:00
6:00 AM,46.4,-9999,N/A,30.12,10.0,West,4.6,-,N/A,,Clear,260,2012-10-02 12:00:00
6:15 AM,46.4,-9999,N/A,30.12,10.0,WSW,6.9,-,N/A,,Clear,250,2012-10-02 12:15:00
6:40 AM,44.6,-9999,N/A,30.12,10.0,WSW,6.9,-,N/A,,Clear,250,2012-10-02 12:40:00
6:55 AM,44.6,-9999,N/A,30.12,10.0,West,6.9,-,N/A,,Clear,260,2012-10-02 12:55:00
7:20 AM,37.4,-9999,N/A,30.13,10.0,Calm,Calm,-,N/A,,Clear,0,2012-10-02 13:20:00
7:40 AM,35.6,-9999,N/A,30.12,10.0,Calm,Calm,-,N/A,,Clear,0,2012-10-02 13:40:00
7:55 AM,35.6,-9999,N/A,30.12,10.0,Calm,Calm,-,N/A,,Clear,0,2012-10-02 13:55:00
8:15 AM,39.2,-9999,N/A,30.12,10.0,Calm,Calm,-,N/A,,Clear,0,2012-10-02 14:15:00
8:35 AM,44.6,-9999,N/A,30.13,10.0,Calm,Calm,-,N/A,,Clear,0,2012-10-02 14:35:00
9:00 AM,44.6,-9999,N/A,30.13,10.0,Calm,Calm,-,N/A,,Clear,0,2012-10-02 15:00:00
9:15 AM,46.4,-9999,N/A,30.13,10.0,West,4.6,-,N/A,,Clear,270,2012-10-02 15:15:00
9:40 AM,53.6,-9999,N/A,30.12,10.0,SSW,13.8,20.7,N/A,,Clear,210,2012-10-02 15:40:00
10:00 AM,53.6,-9999,N/A,30.11,10.0,SSW,20.7,27.6,N/A,,Clear,210,2012-10-02 16:00:00
10:15 AM,53.6,-9999,N/A,30.10,10.0,SSW,18.4,26.5,N/A,,Clear,210,2012-10-02 16:15:00
10:35 AM,55.4,-9999,N/A,30.10,10.0,SW,15.0,24.2,N/A,,Clear,220,2012-10-02 16:35:00
10:55 AM,55.4,-9999,N/A,30.09,10.0,SW,17.3,27.6,N/A,,Clear,220,2012-10-02 16:55:00
11:20 AM,57.2,-9999,N/A,30.08,10.0,SSW,17.3,24.2,N/A,,Clear,210,2012-10-02 17:20:00
11:35 AM,57.2,-9999,N/A,30.08,10.0,SSW,17.3,23.0,N/A,,Clear,210,2012-10-02 17:35:00
11:55 AM,59.0,-9999,N/A,30.07,10.0,South,17.3,24.2,N/A,,Clear,190,2012-10-02 17:55:00
12:15 PM,59.0,-9999,N/A,30.07,10.0,South,13.8,23.0,N/A,,Clear,190,2012-10-02 18:15:00
12:35 PM,62.6,-9999,N/A,30.06,10.0,SSW,17.3,20.7,N/A,,Clear,200,2012-10-02 18:35:00
12:55 PM,62.6,-9999,N/A,30.05,10.0,SW,11.5,18.4,N/A,,Clear,230,2012-10-02 18:55:00
1:15 PM,64.4,-9999,N/A,30.04,10.0,SW,17.3,33.4,N/A,,Clear,220,2012-10-02 19:15:00
1:35 PM,64.4,-9999,N/A,30.03,10.0,SSW,16.1,24.2,N/A,,Clear,210,2012-10-02 19:35:00
1:55 PM,62.6,-9999,N/A,30.02,10.0,SSW,18.4,26.5,N/A,,Clear,200,2012-10-02 19:55:00
2:15 PM,62.6,-9999,N/A,30.02,10.0,SSW,10.4,23.0,N/A,,Clear,200,2012-10-02 20:15:00
2:35 PM,64.4,-9999,N/A,30.01,10.0,SSW,15.0,21.9,N/A,,Clear,200,2012-10-02 20:35:00
2:55 PM,66.2,-9999,N/A,30.00,10.0,SSW,17.3,23.0,N/A,,Clear,210,2012-10-02 20:55:00
3:15 PM,66.2,-9999,N/A,29.99,10.0,SW,19.6,28.8,N/A,,Clear,220,2012-10-02 21:15:00
3:40 PM,66.2,-9999,N/A,29.98,10.0,SSW,25.3,33.4,N/A,Rain,Light Rain,210,2012-10-02 21:40:00
3:55 PM,66.2,-9999,N/A,29.98,10.0,SW,16.1,32.2,N/A,,Clear,220,2012-10-02 21:55:00
4:20 PM,66.2,-9999,N/A,29.97,10.0,SW,23.0,33.4,N/A,,Clear,220,2012-10-02 22:20:00
4:40 PM,64.4,-9999,N/A,29.97,10.0,SSW,23.0,29.9,N/A,,Scattered Clouds,210,2012-10-02 22:40:00
5:00 PM,64.4,-9999,N/A,29.97,10.0,SSW,15.0,24.2,N/A,,Mostly Cloudy,200,2012-10-02 23:00:00
5:20 PM,64.4,-9999,N/A,29.97,10.0,SW,13.8,23.0,N/A,,Mostly Cloudy,220,2012-10-02 23:20:00
5:40 PM,64.4,-9999,N/A,29.96,10.0,SW,12.7,20.7,N/A,,Mostly Cloudy,220,2012-10-02 23:40:00
6:00 PM,64.4,-9999,N/A,29.96,10.0,WSW,9.2,18.4,N/A,,Mostly Cloudy,240,2012-10-03 00:00:00
6:20 PM,62.6,-9999,N/A,29.95,10.0,SW,10.4,17.3,N/A,,Mostly Cloudy,230,2012-10-03 00:20:00
7:00 PM,62.6,-9999,N/A,29.94,10.0,West,3.5,-,N/A,,Mostly Cloudy,260,2012-10-03 01:00:00
7:20 PM,62.6,-9999,N/A,29.93,10.0,SW,8.1,-,N/A,,Mostly Cloudy,220,2012-10-03 01:20:00
7:35 PM,62.6,-9999,N/A,29.93,10.0,WSW,8.1,-,N/A,,Overcast,240,2012-10-03 01:35:00
8:00 PM,60.8,-9999,N/A,29.93,10.0,SW,5.8,-,N/A,,Overcast,230,2012-10-03 02:00:00
8:20 PM,60.8,-9999,N/A,29.93,10.0,WSW,5.8,-,N/A,,Mostly Cloudy,250,2012-10-03 02:20:00
8:40 PM,59.0,-9999,N/A,29.93,10.0,SW,10.4,-,N/A,,Mostly Cloudy,220,2012-10-03 02:40:00
9:00 PM,59.0,-9999,N/A,29.93,10.0,SSW,13.8,17.3,N/A,,Scattered Clouds,210,2012-10-03 03:00:00
9:20 PM,57.2,-9999,N/A,29.92,10.0,SSW,9.2,-,N/A,,Clear,210,2012-10-03 03:20:00
9:40 PM,57.2,-9999,N/A,29.92,10.0,SSW,11.5,-,N/A,,Clear,210,2012-10-03 03:40:00
10:00 PM,55.4,-9999,N/A,29.92,10.0,SSW,11.5,-,N/A,,Clear,210,2012-10-03 04:00:00
10:20 PM,55.4,-9999,N/A,29.92,10.0,SW,9.2,-,N/A,,Clear,220,2012-10-03 04:20:00
10:40 PM,53.6,-9999,N/A,29.92,10.0,SSW,5.8,-,N/A,,Clear,210,2012-10-03 04:40:00
11:00 PM,48.2,-9999,N/A,29.93,10.0,South,5.8,-,N/A,,Clear,190,2012-10-03 05:00:00
11:20 PM,44.6,-9999,N/A,29.94,10.0,SSW,3.5,-,N/A,,Clear,210,2012-10-03 05:20:00
11:40 PM,41.0,-9999,N/A,29.95,10.0,South,3.5,-,N/A,,Clear,190,2012-10-03 05:40:00